Date,TemperatureHighF,TemperatureAvgF,TemperatureLowF,DewpointHighF,DewpointAvgF,DewpointLowF,HumidityHigh,HumidityAvg,HumidityLow,PressureMaxIn,PressureMinIn,WindSpeedMaxMPH,WindSpeedAvgMPH,GustSpeedMaxMPH,PrecipitationSumIn
2013-5-1,91.4,77.6,69.8,83.3,69.3,60.3,77,76,58,29.93,29.76,50,6,50,0.03
2013-5-2,75.6,52.8,45.9,61.0,43.1,29.0,86,70,45,30.33,29.86,20,7,25,0.02
2013-5-3,71.2,54.3,43.9,58.5,39.3,7.4,64,58,15,30.33,30.07,12,4,16,0.00
2013-5-4,87.6,65.1,43.9,27.2,17.9,5.4,43,20,10,30.07,29.86,19,4,19,0.00
2013-5-5,78.8,64.5,47.3,33.0,21.7,6.3,48,22,10,30.14,29.97,8,2,12,0.00
2013-5-6,74.3,63.4,46.6,42.5,32.9,25.0,71,36,16,30.13,29.98,10,2,10,0.00
2013-5-7,89.6,70.5,50.5,48.0,34.0,18.1,72,34,10,30.07,29.91,11,4,14,0.00
2013-5-8,82.9,72.3,62.4,59.5,54.9,44.2,80,56,35,29.99,29.85,14,6,16,0.00
2013-5-9,76.6,69.8,63.1,68.5,62.5,57.7,92,78,62,29.96,29.82,11,4,15,0.19
2013-5-10,88.2,69.8,59.7,66.1,57.1,39.4,94,70,18,30.02,29.82,11,4,14,1.93
2013-5-11,81.7,69.0,59.4,64.6,50.4,30.6,98,60,17,30.14,29.99,8,2,11,0.02
2013-5-12,80.8,67.8,55.8,50.2,40.3,22.7,79,42,13,30.25,30.10,9,2,14,0.00
2013-5-13,88.0,69.6,49.1,48.6,36.7,21.4,81,40,10,30.25,30.12,12,3,14,0.00
2013-5-14,88.5,74.5,61.9,61.5,51.2,33.8,79,48,16,30.19,29.97,15,7,17,0.00
2013-5-15,86.9,73.6,63.5,70.5,65.2,60.1,99,77,42,30.06,29.79,21,8,21,1.02
2013-5-16,92.5,77.4,68.9,71.1,66.7,58.2,98,74,33,29.84,29.70,14,6,18,0.12
2013-5-17,95.5,82.7,72.5,70.3,65.8,57.2,85,61,29,29.87,29.77,14,6,16,0.00
2013-5-18,95.4,81.3,70.2,68.3,60.7,52.2,89,55,24,29.89,29.78,19,8,20,0.00
2013-5-19,92.7,80.5,70.9,66.5,62.3,57.7,82,57,31,29.83,29.71,15,8,20,0.00
2013-5-20,94.5,81.2,71.6,66.9,62.6,56.3,84,57,28,29.82,29.68,21,8,21,0.00
2013-5-21,88.7,78.1,69.1,67.8,64.0,51.9,83,63,42,29.88,29.70,13,6,21,0.00
2013-5-22,95.2,78.0,59.0,67.9,48.2,25.4,81,44,10,29.92,29.79,9,3,12,0.00
2013-5-23,88.7,79.8,72.1,68.6,65.8,61.6,86,64,41,30.02,29.86,11,6,16,0.00
2013-5-24,79.7,72.2,66.7,69.3,67.2,60.2,99,85,57,30.10,29.99,12,4,14,1.44
2013-5-25,81.1,72.1,67.1,73.3,67.7,61.5,99,88,56,30.13,30.01,14,6,21,3.82
2013-5-26,87.1,76.5,70.3,73.5,67.8,61.8,99,76,49,30.07,29.95,14,6,19,0.10
2013-5-27,90.1,77.2,70.0,67.6,65.5,61.6,88,69,40,30.00,29.82,14,7,17,0.00
2013-5-28,88.3,79.2,71.2,66.5,63.6,58.0,81,61,37,29.89,29.74,23,10,24,0.00
2013-5-29,86.7,77.4,72.5,68.5,66.3,63.4,82,69,47,29.86,29.69,23,11,24,0.00
2013-5-30,89.2,79.3,73.8,69.0,66.7,63.4,82,66,44,29.82,29.74,15,7,21,0.00
2013-5-31,91.9,81.4,74.5,69.4,67.4,64.5,82,64,41,29.87,29.74,14,7,17,0.00